Weather in Strumica

North Macedonia     41°26′15″N   22°38′34″E
temp.,
°C
wind,
m/s
gust,
m/s
humid.,
%
clouds,
%
prec.,
mm/h
press.,
hPa
HPBL,
m
24 july, sat
sat2423:00+18ene11511 0.0 101515
02:00+16ne22600 0.0 101612
05:00+15ne21630 0.0 101511
08:00+22wsw11414 0.0 1015623
11:00+27w352555 0.0 10143019
14:00+29nnw251898 0.0 10123439
17:00+29se2323100 0.0 10131801
20:00+22n243833 0.0 1015181
25 july, sun
sun2523:00+17ne22501 0.0 101612
02:00+16ne22500 0.0 101611
05:00+15ene22550 0.0 101712
08:00+23ssw21390 0.0 1017602
11:00+29wsw34230 0.0 10162351
14:00+33nw45120 0.0 10133238
17:00+34n35110 0.0 10133406
20:00+22sse11360 0.0 101524
26 july, mon
mon2623:00+18e22520 0.0 101812
02:00+18ene22570 0.0 101811
05:00+17ene22575 0.0 101816
08:00+24s22363 0.0 1019523
11:00+30sw43251 0.0 10181481
14:00+34sw45200 0.0 10162118
17:00+35ssw652044 0.0 10151793
20:00+25ssw223999 0.0 101717
27 july, tue
tue2723:00+21e225591 0.0 101915
02:00+19ne11565 0.0 102011
05:00+19ne22546 0.0 101911
08:00+28sw21311 0.0 1019457
11:00+34sw33200 0.0 10181731
14:00+37ssw561636 0.0 10163128
17:00+37ssw341640 0.0 10153102
20:00+28sse222861 0.0 101722
28 july, wed
wed2823:00+23ene11415 0.0 101911
02:00+22ene22420 0.0 101911
05:00+21ene22450 0.0 101811
08:00+29sw21280 0.0 1018374
11:00+36sw32180 0.0 10161372
14:00+39sw55137 0.0 10143709
17:00+38ssw651426 0.0 10122892
20:00+26se223851 0.2 101617